Location: Saint-Br�vin-les-Pins
(47.2500°N, 2.1670°W)
Time: 14:45:46
(UTC+01:00)

OTV 5 (USA 277) - Visible Passes

Search period start: 16 February 2019 00:00
Search period end: 26 February 2019 00:00
Orbit: 342 x 346 km, 54.5° (Epoch: 09 February)

Date Brightness Start Highest point End Pass type
(mag) Time Alt. Az. Time Alt. Az. Time Alt. Az.
16 Feb ? 06:44:38 19° SSW 06:44:38 19° SSW 06:46:11 10° S visible
24 Feb ? 19:59:18 10° SSW 20:01:43 24° SE 20:01:55 24° SE visible
25 Feb ? 20:22:21 10° SW 20:25:13 71° SE 20:25:18 71° SE visible
